Stations météo

réclame
Mon MeteoGroup
Brescia/Ghedi, Italie (16088): Température de l'air & dewpoint: 18.05.2019 03:00:00 - 24.05.2019 03:00:00 (CEST)Brescia/Ghedi, Italie (16088): Vitesse du vent: 18.05.2019 03:00:00 - 24.05.2019 03:00:00 (CEST)Brescia/Ghedi, Italie (16088): Direction du vent: 18.05.2019 03:00:00 - 24.05.2019 03:00:00 (CEST)Brescia/Ghedi, Italie (16088): reduced air pressure: 18.05.2019 03:00:00 - 24.05.2019 03:00:00 (CEST)Brescia/Ghedi, Italie (16088): visibility: 18.05.2019 03:00:00 - 24.05.2019 03:00:00 (CEST)
Date & Time tt [°C] td [°C] ff [km/h] ff [knt] dd ppp [hPa] vv [km]
24.05.2019 03:00:00 15,2 13,1 9 5 ENE 1013,6 10
24.05.2019 02:00:00 15,6 13,4 4 2 N 1013,8 10
24.05.2019 01:00:00 16,0 13,7 5 3 NNE 1013,8 10
24.05.2019 00:00:00 16,2 13,3 8 4 NE 1013,8 10
23.05.2019 23:00:00 17,0 13,5 8 4 ENE 1013,4 10
23.05.2019 22:00:00 19,0 13,4 4 2 S 1013,2 10
23.05.2019 21:00:00 20,4 12,4 4 2 S 1012,9 10
23.05.2019 20:00:00 22,2 11,6 4 2 S 1012,8 10
23.05.2019 19:00:00 23,0 12,0 4 2 SW 1012,7 10
23.05.2019 18:00:00 23,2 12,2 5 3 SW 1013,0 10
23.05.2019 17:00:00 23,0 12,3 8 4 SW 1013,3 10
23.05.2019 16:00:00 22,4 12,9 4 2 SW 1013,8 10
23.05.2019 15:00:00 22,0 13,1 8 4 WSW 1014,3 10
23.05.2019 14:00:00 21,2 13,1 5 3 SW 1014,9 10
23.05.2019 13:00:00 20,5 13,2 5 3 SSW 1015,4 10
23.05.2019 12:00:00 20,0 13,7 5 3 SSW 1015,7 10
23.05.2019 11:00:00 19,4 13,1 5 3 SW 1015,9 10
23.05.2019 10:00:00 18,0 13,1 4 2 SW 1016,0 6
23.05.2019 09:00:00 17,0 13,1 5 3 WNW 1016,1 6
23.05.2019 08:00:00 16,2 13,1 4 2 N 1015,9 5
23.05.2019 07:00:00 14,9 12,8 2 1 WSW 1015,9 4,0
23.05.2019 06:00:00 15,2 13,2 4 2 W 1015,6 4,0
23.05.2019 05:00:00 15,3 13,3 5 3 WSW 1015,5 6
23.05.2019 04:00:00 15,2 13,2 4 2 NE 1015,7 6
23.05.2019 03:00:00 15,3 13,5 8 4 NNE 1015,7 10
23.05.2019 02:00:00 15,9 13,6 5 3 SE 1015,7 10
23.05.2019 01:00:00 16,2 13,7 8 4 ESE 1015,6 8
23.05.2019 00:00:00 17,4 14,9 4 2 E 1015,2 8
22.05.2019 23:00:00 17,8 15,1 5 3 ENE 1014,7 8
22.05.2019 22:00:00 18,0 14,9 5 3 ESE 1014,0 8
22.05.2019 21:00:00 18,5 14,6 11 6 ENE 1013,3 10
22.05.2019 20:00:00 19,4 14,2 11 6 ENE 1012,9 8
22.05.2019 19:00:00 22,0 12,3 5 3 SE 1012,5 8
22.05.2019 18:00:00 22,4 12,4 8 4 ESE 1012,7 8
22.05.2019 17:00:00 22,4 12,1 4 2 WSW 1012,8 8
22.05.2019 16:00:00 22,0 13,6 4 2 SW 1012,6 8
22.05.2019 15:00:00 20,8 13,7 4 2 W 1013,1 8
22.05.2019 14:00:00 20,0 13,9 13 7 WNW 1013,4 8
22.05.2019 13:00:00 19,0 13,2 9 5 WNW 1013,6 8
22.05.2019 12:00:00 18,0 12,5 8 4 W 1013,8 8
22.05.2019 11:00:00 17,0 11,5 8 4 W 1013,8 8
22.05.2019 10:00:00 16,6 12,0 11 6 WNW 1013,7 8
22.05.2019 09:00:00 16,0 12,0 13 7 WNW 1013,7 8
22.05.2019 08:00:00 14,0 10,6 9 5 NW 1013,3 4,5
22.05.2019 07:00:00 12,4 9,0 8 4 W 1013,2 2,5
22.05.2019 06:00:00 11,9 8,7 4 2 W 1012,7 0,3
22.05.2019 05:00:00 12,0 9,0 5 3 N 1012,4 0,4
22.05.2019 04:00:00 12,4 9,6 4 2 N 1012,0 0,8
22.05.2019 03:00:00 13,2 10,5 4 2 ENE 1011,7 2,0
22.05.2019 02:00:00 14,0 11,5 4 2 ENE 1011,8 2,5
22.05.2019 01:00:00 14,8 12,5 2 1 N 1012,1 4,0
22.05.2019 00:00:00 15,1 12,8 5 3 NW 1012,3 5
21.05.2019 23:00:00 15,1 13,0 8 4 ENE 1012,1 6
21.05.2019 22:00:00 15,0 12,7 8 4 E 1011,1 6
21.05.2019 21:00:00 14,2 11,4 4 2 E 1010,6 8
21.05.2019 20:00:00 14,7 11,5 18 10 E 1009,5 5
21.05.2019 19:00:00 20,0 13,7 24 13 WNW 1009,3 5
21.05.2019 18:00:00 21,9 13,0 16 9 ENE 1008,2 10
21.05.2019 17:00:00 22,0 13,4 4 2 SSW 1008,2 10
21.05.2019 16:00:00 21,3 13,5 5 3 W 1008,2 10
21.05.2019 15:00:00 20,1 13,1 9 5 W 1008,1 10
21.05.2019 14:00:00 19,1 13,1 13 7 W 1008,1 10
21.05.2019 13:00:00 18,3 12,7 13 7 W 1007,8 10
21.05.2019 12:00:00 18,0 13,3 15 8 WNW 1007,6 10
21.05.2019 11:00:00 16,3 11,7 16 9 W 1007,5 10
21.05.2019 10:00:00 15,0 10,8 13 7 W 1007,3 10
21.05.2019 09:00:00 14,9 11,3 15 8 W 1006,7 10
21.05.2019 08:00:00 13,8 10,8 13 7 WNW 1006,5 8
21.05.2019 07:00:00 13,0 10,0 8 4 W 1006,3 8
21.05.2019 06:00:00 13,0 9,8 8 4 W 1005,9 8
21.05.2019 05:00:00 13,2 10,0 5 3 W 1006,0 8
21.05.2019 04:00:00 13,4 10,2 8 4 W 1006,2 8
21.05.2019 03:00:00 14,0 11,0 5 3 W 1006,4 7
21.05.2019 02:00:00 14,0 11,2 4 2 W 1006,4 6
21.05.2019 01:00:00 14,0 11,4 4 2 WSW 1006,4 3,0
21.05.2019 00:00:00 14,2 11,7 5 3 WNW 1006,5 3,5
20.05.2019 23:00:00 14,4 11,9 5 3 W 1006,2 4,0
20.05.2019 22:00:00 14,4 11,9 2 1 WNW 1006,0 5
20.05.2019 21:00:00 14,6 12,1 2 1 S 1005,7 4,0
20.05.2019 20:00:00 15,0 12,3 2 1 SW 1005,7 3,5
20.05.2019 19:00:00 15,0 12,0 4 2 W 1005,6 4,0
20.05.2019 18:00:00 15,0 12,0 5 3 WSW 1005,6 4,0
20.05.2019 17:00:00 15,1 12,0 5 3 W 1005,6 3,4
20.05.2019 16:00:00 15,1 12,1 9 5 W 1005,6 3,4
20.05.2019 15:00:00 15,1 12,0 11 6 WNW 1005,4 3,2
20.05.2019 14:00:00 15,0 12,0 8 4 W 1005,2 3,2
20.05.2019 13:00:00 14,9 11,7 8 4 W 1004,9 3,0
20.05.2019 12:00:00 15,0 11,8 9 5 W 1004,8 3,0
20.05.2019 11:00:00 14,3 11,1 8 4 W 1004,6 3,0
20.05.2019 10:00:00 14,0 10,4 8 4 W 1004,5 2,4
20.05.2019 09:00:00 14,0 10,4 8 4 W 1003,9 2,0
20.05.2019 08:00:00 13,6 10,0 5 3 W 1003,7 1,6
20.05.2019 07:00:00 13,0 9,8 8 4 WSW 1003,7 1,6
20.05.2019 06:00:00 13,0 10,4 5 3 WSW 1004,1 2,0
20.05.2019 05:00:00 13,0 10,7 4 2 WSW 1004,1 6
20.05.2019 04:00:00 13,0 10,9 4 2 W 1004,9 6
20.05.2019 03:00:00 13,0 10,4 4 2 WSW 1005,1 6
20.05.2019 02:00:00 13,2 11,1 4 2 WNW 1004,7 6
20.05.2019 01:00:00 13,2 10,7 4 2 W 1004,7 6
20.05.2019 00:00:00 13,0 10,7 8 4 W 1005,3 6
19.05.2019 23:00:00 13,2 11,3 11 6 WSW 1004,6 6
19.05.2019 22:00:00 14,0 11,9 4 2 S 1004,3 6
19.05.2019 21:00:00 - - - - - - -
19.05.2019 20:00:00 15,8 11,2 9 5 SE 1004,2 15
19.05.2019 19:00:00 16,2 10,9 8 4 ESE 1004,2 10
19.05.2019 18:00:00 16,0 10,5 13 7 E 1004,2 10
19.05.2019 17:00:00 15,4 11,6 8 4 NNE 1004,2 10
19.05.2019 16:00:00 14,4 11,2 2 1 SSE 1004,2 8
19.05.2019 15:00:00 13,6 10,8 8 4 NE 1004,3 8
19.05.2019 14:00:00 13,5 10,9 13 7 ENE 1004,4 6
19.05.2019 13:00:00 13,2 10,7 8 4 E 1004,4 5
19.05.2019 12:00:00 13,2 10,6 5 3 ENE 1004,4 3,5
19.05.2019 11:00:00 13,0 10,5 4 2 WSW 1004,4 5
19.05.2019 10:00:00 12,6 10,1 9 5 NNE 1004,4 4,0
19.05.2019 09:00:00 13,0 10,5 5 3 SSE 1004,2 3,5
19.05.2019 08:00:00 13,0 10,2 5 3 NNE 1003,9 6
19.05.2019 07:00:00 12,8 10,0 8 4 NE 1004,3 6
19.05.2019 06:00:00 13,2 10,7 4 2 NNW 1004,5 3,0
19.05.2019 05:00:00 13,2 10,9 4 2 WSW 1004,6 4,0
19.05.2019 04:00:00 13,2 10,9 4 2 NNW 1005,1 4,5
19.05.2019 03:00:00 13,2 11,1 5 3 NW 1005,3 4,5
19.05.2019 02:00:00 13,2 11,1 4 2 NW 1005,8 5
19.05.2019 01:00:00 13,2 11,1 4 2 SE 1006,2 8
19.05.2019 00:00:00 13,2 11,1 2 1 NNW 1006,3 8
18.05.2019 23:00:00 13,4 11,5 8 4 N 1006,4 6
18.05.2019 22:00:00 13,4 11,5 4 2 W 1006,6 8
18.05.2019 21:00:00 14,0 11,5 2 1 WNW 1006,4 8
18.05.2019 20:00:00 13,8 11,5 8 4 NNW 1005,9 10
18.05.2019 19:00:00 14,6 11,0 8 4 NE 1005,9 10
18.05.2019 18:00:00 15,0 11,2 8 4 E 1005,9 10
18.05.2019 17:00:00 14,9 11,5 11 6 E 1005,9 10
18.05.2019 16:00:00 15,0 11,0 15 8 E 1006,1 15
18.05.2019 15:00:00 15,6 9,3 18 10 E 1006,2 15
18.05.2019 14:00:00 16,2 10,1 15 8 ESE 1006,2 15
18.05.2019 13:00:00 16,0 9,4 22 12 E 1006,5 10
18.05.2019 12:00:00 15,4 10,2 15 8 ENE 1006,5 10
18.05.2019 11:00:00 14,6 10,0 16 9 ENE 1006,7 10
18.05.2019 10:00:00 13,8 10,4 15 8 NE 1006,7 10
18.05.2019 09:00:00 13,0 10,7 11 6 NE 1006,6 6
18.05.2019 08:00:00 13,0 10,7 11 6 ESE 1006,5 6
18.05.2019 07:00:00 12,6 10,1 8 4 ENE 1006,1 6
18.05.2019 06:00:00 12,2 10,1 9 5 ENE 1006,7 5
18.05.2019 05:00:00 12,2 10,6 5 3 SSE 1007,7 5
18.05.2019 04:00:00 12,8 11,2 4 2 SSE 1007,9 5
18.05.2019 03:00:00 12,6 11,0 5 3 NE 1008,2 8

tt = Température de l'air
td = dewpoint
ff = Vitesse du vent
dd = Direction du vent
ppp = reduced air pressure
vv = visibility

stations d'obs. à proximité